TimeCDT,TemperatureF,Dew PointF,Humidity,Sea Level PressureIn,VisibilityMPH,Wind Direction,Wind SpeedMPH,Gust SpeedMPH,PrecipitationIn,Events,Conditions,WindDirDegrees,DateUTC
12:52 AM,51.1,48.9,92,30.26,5.0,ESE,3.5,-,N/A,,Clear,110,2012-10-13 05:52:00
3:36 AM,51.8,50.0,94,30.24,5.0,SE,6.9,-,N/A,,Mostly Cloudy,140,2012-10-13 08:36:00
3:45 AM,51.8,51.8,100,30.23,3.0,SE,6.9,-,N/A,,Mostly Cloudy,130,2012-10-13 08:45:00
5:52 AM,54.0,53.1,97,30.22,1.0,SSE,4.6,-,N/A,,Mist,150,2012-10-13 10:52:00
6:07 AM,53.6,53.6,100,30.22,2.5,SSE,3.5,-,N/A,,Overcast,150,2012-10-13 11:07:00
6:29 AM,55.4,53.6,94,30.22,3.0,SE,3.5,-,N/A,,Overcast,130,2012-10-13 11:29:00
6:38 AM,55.4,53.6,94,30.22,2.5,SE,3.5,-,N/A,,Overcast,140,2012-10-13 11:38:00
7:07 AM,55.4,55.4,100,30.23,2.0,SSE,5.8,-,N/A,,Overcast,150,2012-10-13 12:07:00
7:14 AM,55.4,55.4,100,30.22,1.8,SE,5.8,-,N/A,,Overcast,140,2012-10-13 12:14:00
7:52 AM,57.0,55.9,96,30.23,1.2,SSE,4.6,-,N/A,,Overcast,160,2012-10-13 12:52:00
9:03 AM,59.0,57.2,94,30.23,1.2,South,6.9,-,N/A,,Overcast,170,2012-10-13 14:03:00
9:52 AM,61.0,60.1,97,30.22,8.0,SSE,8.1,-,N/A,,Overcast,160,2012-10-13 14:52:00
10:52 AM,66.9,62.1,84,30.21,10.0,South,4.6,-,N/A,,Mostly Cloudy,170,2012-10-13 15:52:00
11:52 AM,73.9,64.0,71,30.18,10.0,South,12.7,-,N/A,,Scattered Clouds,180,2012-10-13 16:52:00
12:52 PM,78.1,64.0,62,30.15,10.0,SSW,13.8,-,N/A,,Partly Cloudy,200,2012-10-13 17:52:00
1:24 PM,78.8,64.4,61,30.14,10.0,SSW,12.7,19.6,N/A,,Mostly Cloudy,200,2012-10-13 18:24:00
1:52 PM,78.1,64.0,62,30.12,10.0,South,12.7,-,N/A,,Mostly Cloudy,190,2012-10-13 18:52:00
2:52 PM,79.0,64.0,60,30.10,10.0,South,13.8,20.7,N/A,,Mostly Cloudy,190,2012-10-13 19:52:00
3:52 PM,77.0,63.0,62,30.09,10.0,South,10.4,-,N/A,,Scattered Clouds,190,2012-10-13 20:52:00
4:52 PM,77.0,63.0,62,30.07,10.0,South,10.4,17.3,N/A,,Mostly Cloudy,180,2012-10-13 21:52:00
5:52 PM,75.9,63.0,64,30.07,10.0,SSE,6.9,-,N/A,,Scattered Clouds,150,2012-10-13 22:52:00
9:52 PM,69.1,63.0,81,30.05,10.0,South,8.1,-,N/A,,Clear,170,2012-10-14 02:52:00
10:52 PM,69.1,62.1,78,30.04,10.0,South,8.1,-,N/A,,Scattered Clouds,180,2012-10-14 03:52:00